TimeEDT,TemperatureF,Dew PointF,Humidity,Sea Level PressureIn,VisibilityMPH,Wind Direction,Wind SpeedMPH,Gust SpeedMPH,PrecipitationIn,Events,Conditions,WindDirDegrees,DateUTC
12:57 AM,64.0,57.9,80,30.27,10.0,Calm,Calm,-,N/A,,Clear,0,2013-05-28 04:57:00
1:57 AM,62.1,57.9,86,30.26,10.0,Calm,Calm,-,N/A,,Clear,0,2013-05-28 05:57:00
2:57 AM,60.1,55.9,86,30.25,10.0,Calm,Calm,-,N/A,,Clear,0,2013-05-28 06:57:00
3:57 AM,59.0,55.9,90,30.25,10.0,Calm,Calm,-,N/A,,Clear,0,2013-05-28 07:57:00
4:57 AM,59.0,55.0,87,30.25,10.0,Calm,Calm,-,N/A,,Clear,0,2013-05-28 08:57:00
5:57 AM,57.0,54.0,89,30.25,10.0,Calm,Calm,-,N/A,,Clear,0,2013-05-28 09:57:00
6:57 AM,62.1,59.0,90,30.27,10.0,Calm,Calm,-,N/A,,Clear,0,2013-05-28 10:57:00
7:57 AM,73.0,62.1,68,30.28,10.0,SE,4.6,-,N/A,,Mostly Cloudy,140,2013-05-28 11:57:00
8:57 AM,75.0,59.0,57,30.29,10.0,SE,5.8,-,N/A,,Mostly Cloudy,140,2013-05-28 12:57:00
9:57 AM,75.9,61.0,60,30.31,10.0,SE,6.9,-,N/A,,Clear,130,2013-05-28 13:57:00
10:57 AM,77.0,63.0,62,30.31,10.0,SSE,9.2,-,N/A,,Scattered Clouds,160,2013-05-28 14:57:00
11:57 AM,78.1,64.0,62,30.31,10.0,South,10.4,-,N/A,,Scattered Clouds,170,2013-05-28 15:57:00
12:57 PM,78.1,64.0,62,30.31,10.0,SSE,10.4,-,N/A,,Scattered Clouds,150,2013-05-28 16:57:00
1:57 PM,78.1,63.0,60,30.30,10.0,SSE,11.5,-,N/A,,Scattered Clouds,160,2013-05-28 17:57:00
2:57 PM,78.1,64.0,62,30.28,10.0,SSE,12.7,-,N/A,,Scattered Clouds,160,2013-05-28 18:57:00
3:57 PM,78.1,64.0,62,30.25,10.0,South,13.8,-,N/A,,Partly Cloudy,180,2013-05-28 19:57:00
4:57 PM,78.1,64.0,62,30.24,10.0,South,10.4,-,N/A,,Clear,190,2013-05-28 20:57:00
5:57 PM,77.0,64.0,64,30.24,10.0,South,10.4,-,N/A,,Clear,180,2013-05-28 21:57:00
6:57 PM,75.0,64.0,69,30.24,10.0,South,10.4,-,N/A,,Clear,190,2013-05-28 22:57:00
7:57 PM,73.9,64.9,73,30.24,10.0,SSW,6.9,-,N/A,,Clear,200,2013-05-28 23:57:00
8:57 PM,72.0,64.9,78,30.25,10.0,SSW,4.6,-,N/A,,Clear,200,2013-05-29 00:57:00
9:57 PM,72.0,66.0,81,30.25,10.0,SSW,5.8,-,N/A,,Clear,200,2013-05-29 01:57:00
10:57 PM,71.1,66.0,84,30.25,10.0,SSW,3.5,-,N/A,,Clear,200,2013-05-29 02:57:00
11:57 PM,71.1,66.0,84,30.25,10.0,South,5.8,-,N/A,,Clear,190,2013-05-29 03:57:00